[[{"header":{"parameterUnit":"m.s-1","parameterCategory":1,"la1":30.2991,"la2":30.254,"lo1":-89.0895,"lo2":-89.0444,"dy":0.0017,"dx":0.0017,"nx":28,"ny":28,"refTime":"2025-06-05T09:00:00:Z","depth":0,"parameterNumber":2,"parameterNumberName":"U-component_of_WINDS"},"data":[0,0,0,0,0,0,0,0,0,0,0,0,0,0,0,0,0,0,0,0,0,0,0,0,0,0,0,0,0,0,0,0,0,0,0,0,0,0,0,0,0,0,0,0,0,0,0,0,0,0,0,0,0,0,0,0,0,0,0.0746,0.0747,0,0.0856,0.0857,0.0858,0.0904,0.0903,0.0903,0.0903,0.1019,0.1022,0.1026,0,0,0,0,0,0,0,0,0,0,0,0,0,0.0578,0.0581,0.0746,0.0747,0.0749,0.0856,0.0857,0.0859,0.0904,0.0903,0.0903,0.0903,0.1018,0.1022,0.1026,0,0,0,0,0,0,0,0,0,0,0,0,0,0.0666,0.0582,0.0746,0.0784,0.0788,0.0855,0.0857,0.0859,0.0904,0.0903,0.0903,0.0903,0.1017,0.1021,0.1026,0.1065,0,0,0.1042,0.1044,0,0,0,0,0,0,0,0,0.0661,0.0672,0.0777,0.0781,0.0786,0.0866,0.0841,0.0928,0.0904,0.086,0.0903,0.0902,0.0968,0.0977,0.0999,0.107,0.1075,0.1042,0.1045,0.1047,0.1049,0,0,0,0,0,0,0,0.0655,0.0668,0.079,0.0778,0.0784,0.0797,0.0809,0.0858,0.0915,0.0864,0.0867,0.088,0.0971,0.0994,0.1002,0.1077,0.1042,0.1046,0.1049,0.1051,0.1186,0.1187,0,0,0,0,0,0,0.0642,0.0662,0.0786,0.0793,0.0721,0.08,0.0813,0.0841,0.0915,0.0926,0.088,0.0881,0.0986,0.0996,0.1006,0.1057,0.1047,0.1052,0.1055,0.1186,0.1186,0.1187,0,0,0,0,0,0,0.0638,0.0653,0.0782,0.0729,0.0746,0.0803,0.0833,0.0843,0.0866,0.0927,0.0938,0.0892,0.0986,0.0999,0.105,0.1061,0.1054,0.1059,0.1185,0.1186,0.1187,0.1157,0,0,0,0,0,0,0.0633,0.0651,0.0665,0.0728,0.0749,0.0822,0.0834,0.0845,0.0874,0.0877,0.0941,0.0952,0.0987,0.1042,0.1055,0.1068,0.1063,0.1184,0.1185,0.1186,0.1158,0.1157,0.1157,0,0,0,0,0,0.0627,0.0653,0.0666,0.068,0.0767,0.0823,0.0834,0.0873,0.0875,0.089,0.0929,0.095,0.1058,0.1047,0.1062,0.1077,0.1184,0.1185,0.1186,0.1158,0.1157,0.1157,0,0,0,0,0,0,0.059,0.0662,0.0677,0.0724,0.0767,0.083,0.0851,0.0871,0.0915,0.0916,0.0963,0.0977,0.1024,0.1055,0.1042,0.1118,0.1123,0.1127,0.1096,0.1096,0.1095,0.1087,0.1067,0,0,0,0,0,0.0587,0.0625,0.0686,0.0722,0.0743,0.0793,0.0818,0.0844,0.0891,0.091,0.0953,0.0998,0.1043,0.1071,0.1115,0.1162,0.1178,0.118,0.1179,0.1179,0.1182,0.1211,0.1213,0.1191,0.1191,0.1191,0,0,0.0582,0.0626,0.0647,0.0716,0.0752,0.0791,0.0808,0.0848,0.0879,0.0916,0.0966,0.0999,0.1054,0.1103,0.1127,0.1131,0.1192,0.1181,0.118,0.1184,0.1212,0.1214,0.1216,0.1192,0.1192,0.1192,0,0,0.0593,0.063,0.0664,0.07,0.0754,0.0788,0.0796,0.0856,0.088,0.093,0.096,0.0997,0.1072,0.111,0.1139,0.1164,0.1185,0.1178,0.1176,0.1203,0.1204,0.1206,0.1216,0.1219,0.1181,0.1181,0.1181,0,0.058,0.064,0.0679,0.0718,0.0748,0.0783,0.0819,0.0852,0.0919,0.0939,0.0942,0.1038,0.1077,0.1135,0.1142,0.1164,0.1175,0.1171,0.1201,0.1203,0.1205,0.1215,0.1219,0.1179,0.1179,0.118,0.118,0,0.0622,0.0662,0.0684,0.0746,0.0778,0.0816,0.0862,0.089,0.0913,0.0946,0.0999,0.1046,0.1101,0.1117,0.114,0.118,0.118,0.1191,0.1197,0.1205,0.1216,0.122,0.1178,0.1178,0.1178,0.1179,0,0,0.0612,0.0696,0.0704,0.0733,0.0796,0.0829,0.0868,0.0921,0.0944,0.0989,0.1024,0.1087,0.1098,0.1131,0.1159,0.1183,0.1201,0.1191,0.1193,0.1192,0.1248,0.124,0.1244,0.1215,0.1216,0.1217,0.1244,0,0.0632,0.0703,0.074,0.0796,0.0835,0.0869,0.0904,0.0947,0.0979,0.1018,0.1054,0.1098,0.1109,0.1129,0.1154,0.1193,0.1213,0.1192,0.1249,0.1251,0.1235,0.1249,0.124,0.1264,0.1248,0.1249,0.125,0,0.0665,0.0709,0.0768,0.0827,0.0845,0.0875,0.0927,0.0963,0.1013,0.1035,0.1072,0.1099,0.1144,0.1145,0.1208,0.1192,0.1218,0.1241,0.1243,0.1251,0.1251,0.1258,0.1273,0.1276,0.1256,0.1256,0.1255,0,0.0653,0.0727,0.0772,0.0796,0.0866,0.0887,0.0917,0.0967,0.0996,0.1042,0.1062,0.1112,0.114,0.1179,0.122,0.1217,0.1279,0.1283,0.1299,0.1298,0.1311,0.131,0.1331,0.1326,0.1326,0.1326,0.1326,0,0.0672,0.0707,0.0768,0.0796,0.0837,0.088,0.0919,0.0953,0.0996,0.1032,0.1065,0.1098,0.115,0.119,0.1223,0.127,0.1282,0.1302,0.131,0.1299,0.1297,0.1317,0.1317,0.1327,0.1327,0.1327,0.1327,0,0.0665,0.0708,0.0759,0.0822,0.0838,0.0866,0.0919,0.0949,0.0982,0.1028,0.1041,0.1095,0.1143,0.1188,0.1253,0.1275,0.1323,0.1333,0.1306,0.1311,0.1324,0.1322,0.136,0.1367,0.1356,0.1356,0.1357,0,0.0675,0.0703,0.0768,0.0794,0.0823,0.0865,0.0895,0.0939,0.0969,0.1029,0.1051,0.1102,0.1145,0.1222,0.1268,0.1318,0.133,0.134,0.1338,0.1326,0.1331,0.1329,0.1333,0.1339,0.1339,0.1339,0.1339,0,0.0687,0.0707,0.0749,0.0798,0.0833,0.0875,0.0917,0.0937,0.0989,0.1022,0.1072,0.1105,0.1171,0.1222,0.1278,0.131,0.1334,0.1339,0.1346,0.1335,0.1318,0.1328,0.1305,0.1338,0.1338,0.1338,0.1338,0.1338,0.069,0.0716,0.0766,0.0812,0.0849,0.0888,0.0919,0.0956,0.0999,0.1055,0.1079,0.113,0.1181,0.1257,0.129,0.1331,0.1336,0.1345,0.1348,0.1349,0.1348,0.1311,0.1341,0.1342,0.1342,0.1342,0.1342,0,0.0704,0.0738,0.078,0.0838,0.0875,0.0893,0.0941,0.0971,0.1015,0.106,0.1101,0.1159,0.1209,0.1258,0.1311,0.1335,0.1347,0.1347,0.1346,0.1354,0.134,0.1329,0.1336,0.1336,0.1336,0.1336,0.1336,0.1336,0.0716,0.0763,0.0788,0.0854,0.0888,0.0938,0.0964,0.1,0.1036,0.1099,0.1141,0.1172,0.1219,0.1276,0.1322,0.1336,0.1354,0.1351,0.1368,0.1354,0.1354,0.1354,0.1345,0.1355,0.1355,0.1378,0.1378,0.1379]},{"header":{"parameterUnit":"m.s-1","parameterCategory":1,"la1":30.2991,"la2":30.254,"lo1":-89.0895,"lo2":-89.0444,"dy":0.0017,"dx":0.0017,"nx":28,"ny":28,"refTime":"2025-06-05T09:00:00:Z","depth":0,"parameterNumber":3,"parameterNumberName":"V-component_of_WINDS"},"data":[0,0,0,0,0,0,0,0,0,0,0,0,0,0,0,0,0,0,0,0,0,0,0,0,0,0,0,0,0,0,0,0,0,0,0,0,0,0,0,0,0,0,0,0,0,0,0,0,0,0,0,0,0,0,0,0,0,0,3.258,3.258,0,3.2553,3.2553,3.2552,3.2572,3.2573,3.2574,3.2575,3.2542,3.254,3.2539,0,0,0,0,0,0,0,0,0,0,0,0,0,3.2646,3.2645,3.258,3.258,3.258,3.2553,3.2553,3.2552,3.2572,3.2573,3.2574,3.2575,3.2543,3.2541,3.2538,0,0,0,0,0,0,0,0,0,0,0,0,0,3.2618,3.2644,3.2581,3.2586,3.2587,3.2553,3.2553,3.2552,3.2572,3.2573,3.2574,3.2575,3.2543,3.2541,3.2538,3.2496,0,0,3.253,3.2529,0,0,0,0,0,0,0,0,3.2619,3.2615,3.2586,3.2586,3.2586,3.2567,3.2564,3.2533,3.2571,3.2577,3.2575,3.2576,3.2549,3.2546,3.2538,3.2495,3.2493,3.253,3.2529,3.2528,3.2527,0,0,0,0,0,0,0,3.2621,3.2617,3.257,3.2585,3.2586,3.2589,3.2587,3.2558,3.2556,3.2577,3.2578,3.2575,3.2549,3.254,3.2537,3.2493,3.253,3.2528,3.2526,3.2526,3.2414,3.2413,0,0,0,0,0,0,3.2623,3.2618,3.257,3.2569,3.2607,3.2587,3.2584,3.2572,3.2556,3.2555,3.2574,3.2576,3.2544,3.254,3.2536,3.2486,3.2528,3.2525,3.2524,3.2415,3.2414,3.2412,0,0,0,0,0,0,3.2625,3.2619,3.2571,3.2594,3.2588,3.2585,3.2571,3.2571,3.2562,3.2554,3.2553,3.2565,3.2545,3.254,3.2506,3.2485,3.2524,3.2522,3.2417,3.2415,3.2413,3.2385,0,0,0,0,0,0,3.2626,3.2619,3.2604,3.2593,3.2587,3.2543,3.2569,3.2569,3.2558,3.256,3.2546,3.2545,3.2546,3.251,3.2504,3.2482,3.252,3.2419,3.2416,3.2414,3.2388,3.2382,3.2377,0,0,0,0,0,3.2629,3.2596,3.2603,3.2597,3.2568,3.2542,3.2538,3.2541,3.2556,3.254,3.2535,3.2545,3.2489,3.2506,3.25,3.2477,3.242,3.2417,3.2414,3.239,3.2383,3.2378,0,0,0,0,0,0,3.2602,3.2595,3.2602,3.2566,3.2554,3.2545,3.2525,3.2533,3.2516,3.2519,3.2522,3.2519,3.2484,3.2477,3.2497,3.2436,3.2457,3.2452,3.2441,3.2435,3.243,3.2431,3.2518,0,0,0,0,0,3.2592,3.2573,3.2567,3.2535,3.2529,3.2528,3.2517,3.2521,3.2508,3.2503,3.2496,3.2483,3.2462,3.2448,3.2429,3.2388,3.2384,3.2369,3.2364,3.2359,3.2355,3.2332,3.2325,3.2401,3.2401,3.2401,0,0,3.2571,3.2565,3.2552,3.253,3.2521,3.25,3.2524,3.25,3.2484,3.2499,3.2467,3.2462,3.2447,3.241,3.2393,3.2403,3.2333,3.2355,3.2352,3.2349,3.2328,3.2321,3.2315,3.2399,3.24,3.24,0,0,3.2521,3.2515,3.2488,3.248,3.2468,3.2468,3.2461,3.2451,3.2448,3.2417,3.2428,3.2409,3.2373,3.2362,3.2352,3.2301,3.2309,3.2294,3.2266,3.2245,3.2239,3.2233,3.2214,3.2208,3.229,3.229,3.229,0,3.2496,3.2466,3.2472,3.2449,3.2438,3.2453,3.2425,3.2416,3.2398,3.239,3.2402,3.2359,3.235,3.231,3.2298,3.2289,3.2281,3.2295,3.2239,3.2234,3.2229,3.2211,3.2204,3.2288,3.2288,3.2288,3.2289,0,3.2435,3.2414,3.2394,3.2377,3.2365,3.2339,3.2341,3.2327,3.2332,3.233,3.2298,3.2289,3.2268,3.2259,3.2263,3.222,3.2227,3.2239,3.226,3.222,3.2203,3.2196,3.2286,3.2286,3.2287,3.2287,0,0,3.2366,3.2356,3.2348,3.2341,3.233,3.2313,3.2288,3.2269,3.2257,3.2244,3.2223,3.2193,3.2205,3.2193,3.2197,3.2178,3.2137,3.2192,3.2192,3.2182,3.2089,3.2079,3.2071,3.2143,3.2142,3.2141,3.209,0,3.2316,3.2273,3.2279,3.2238,3.2218,3.2233,3.2211,3.2201,3.2199,3.2181,3.2179,3.2158,3.2175,3.2168,3.215,3.2146,3.2118,3.215,3.2122,3.2121,3.2124,3.2063,3.2052,3.2004,3.2084,3.2083,3.2082,0,3.225,3.2237,3.2195,3.2187,3.2179,3.216,3.2143,3.2127,3.2116,3.2116,3.2104,3.2111,3.2085,3.2108,3.2071,3.2093,3.2082,3.2078,3.2076,3.2073,3.2098,3.2056,3.1989,3.1982,3.2071,3.2072,3.2073,0,3.2204,3.2175,3.2146,3.214,3.2131,3.2117,3.2112,3.2103,3.2091,3.2077,3.2069,3.2052,3.2041,3.2027,3.2029,3.2045,3.1992,3.2015,3.199,3.199,3.1977,3.1977,3.1906,3.1971,3.1972,3.1972,3.1972,0,3.2146,3.2119,3.2125,3.2107,3.2078,3.2085,3.2055,3.2051,3.2043,3.2024,3.2036,3.2017,3.2021,3.2002,3.2004,3.1973,3.1969,3.1967,3.1967,3.1965,3.1966,3.1957,3.196,3.197,3.197,3.1971,3.1971,0,3.2088,3.2091,3.2061,3.2055,3.2053,3.2032,3.2026,3.2009,3.2009,3.1985,3.1979,3.1978,3.1957,3.1958,3.1934,3.1935,3.1897,3.1902,3.1901,3.1902,3.1877,3.1879,3.1797,3.1786,3.1859,3.1859,3.1858,0,3.2051,3.2031,3.2024,3.2013,3.2008,3.1989,3.1979,3.1985,3.1973,3.196,3.1944,3.1924,3.1909,3.1874,3.1871,3.1852,3.1856,3.1829,3.1853,3.1852,3.1855,3.1856,3.1854,3.1823,3.1822,3.1822,3.1821,0,3.1984,3.1987,3.1971,3.1957,3.1944,3.1933,3.1922,3.1912,3.1917,3.1903,3.1883,3.1871,3.1847,3.1827,3.181,3.1804,3.1813,3.1814,3.1807,3.1804,3.1805,3.1804,3.1887,3.1815,3.1816,3.1816,3.1817,3.1817,3.1934,3.1917,3.191,3.1893,3.1887,3.1877,3.1861,3.1859,3.1843,3.1825,3.183,3.1807,3.1797,3.1775,3.1767,3.1749,3.1758,3.1748,3.1746,3.1743,3.174,3.1809,3.1746,3.1746,3.1746,3.1746,3.1746,0,3.1867,3.1864,3.1848,3.1834,3.1821,3.1833,3.1822,3.181,3.179,3.1781,3.1766,3.1743,3.1724,3.172,3.1702,3.1687,3.1691,3.1682,3.1683,3.1681,3.1733,3.174,3.168,3.168,3.168,3.168,3.168,3.168,3.1831,3.1803,3.1806,3.1774,3.1771,3.175,3.1743,3.1734,3.1727,3.1701,3.1686,3.1684,3.1677,3.1658,3.1642,3.1641,3.1633,3.1623,3.1623,3.1671,3.1678,3.1684,3.1691,3.1621,3.1621,3.1573,3.1573,3.1573]}]]